Temperature
14 14 14 14 15 15 15 16 16 18 18 15 15 14 14 15 15 16 16 16 16 17 17 17 17 16 16 16 16 16 16 16 16 16 16 15 15 15
13 13 13 14 14 14 15 15 15 16 17 16 15 15 14 14 15 15 16 16 16 16 16 16 16 16 16 16 16 16 16 15 15 15 15 15 15 15
12 12 12 13 13 13 14 14 14 15 15 16 15 14 14 14 14 15 15 15 15 16 16 16 16 16 16 16 16 16 16 15 15 15 15 15 14 14
11 11 12 12 12 13 13 13 14 14 14 15 14 14 13 14 14 14 13 13 14 14 15 15 16 16 16 15 15 15 15 15 15 15 15 14 14 14
11 11 11 11 11 12 12 13 13 13 14 14 14 14 14 13 14 13 13 12 13 13 13 14 14 15 15 15 15 15 15 14 14 14 14 14 14 14
11 11 11 11 11 11 11 12 12 13 13 14 14 14 14 13 13 13 12 12 12 12 12 13 13 13 14 14 14 14 14 13 13 13 13 13 13 13
10 10 10 10 11 10 11 11 12 12 13 13 13 14 14 13 13 12 12 12 12 12 12 12 12 12 12 12 13 13 13 13 12 12 12 12 12 13
10 10 10 10 10 10 10 10 11 11 12 12 13 14 14 13 13 12 12 12 11 11 11 11 11 11 11 12 12 12 12 12 12 12 12 12 12 12
10 10 10 10 10 9 10 10 10 10 11 11 12 13 13 13 13 12 12 12 12 12 11 11 10 11 11 11 11 12 12 12 12 12 12 12 12 12
10 10 10 10 9 9 9 9 10 10 10 11 11 12 13 13 13 13 12 12 12 11 11 10 10 10 11 11 11 11 11 11 11 11 11 11 11 12
10 10 10 10 10 9 9 9 10 10 10 10 11 12 12 12 13 12 11 11 11 10 10 10 9 9 10 10 10 10 10 10 10 10 10 10 10 11
9 10 10 10 10 10 10 9 10 10 10 10 11 12 12 12 12 12 12 11 11 10 9 10 9 9 8 8 8 8 8 8 8 8 9 9 9 9
10 10 10 10 10 10 10 10 10 10 10 10 11 11 12 12 12 12 11 12 12 12 11 10 9 10 9 8 7 7 7 7 7 7 8 8 8 8
10 10 10 10 10 10 10 10 10 10 10 10 10 11 11 11 12 11 11 11 12 12 12 11 10 10 10 8 7 7 7 7 7 7 7 7 7 8
9 9 9 9 9 9 10 10 10 10 10 10 10 11 11 11 11 11 11 11 11 11 11 10 10 10 10 10 9 8 7 7 7 7 6 7 7 7
8 8 9 9 9 9 9 9 9 10 10 10 10 11 11 11 10 10 10 10 9 9 9 9 9 10 10 10 10 9 8 7 7 7 7 7 7 7
8 8 8 8 8 9 9 9 9 9 10 10 10 10 10 10 10 10 10 9 9 8 8 8 9 9 10 10 9 9 8 8 8 7 7 8 8 7
7 8 8 8 9 9 9 9 9 9 10 10 10 10 10 10 10 9 9 9 9 8 9 9 9 9 9 10 10 9 9 9 8 7 8 8 9 8
6 7 8 8 9 9 9 9 9 9 9 9 10 10 10 10 9 9 9 9 9 9 9 10 10 10 10 10 9 10 10 9 9 8 8 9 10 9
6 7 7 8 8 9 9 9 9 9 9 9 9 10 10 9 9 9 9 9 10 10 10 10 10 11 11 12 10 9 9 9 9 9 9 9 10 10
6 7 7 8 8 9 9 8 8 9 9 9 9 9 9 9 9 9 9 10 10 11 11 11 11 11 11 11 11 10 9 9 9 9 10 10 10 10
6 7 7 8 8 8 8 8 8 8 8 9 9 9 9 9 9 9 10 10 11 11 11 11 11 11 11 11 12 11 10 9 9 9 9 10 11 11
7 7 7 8 8 8 8 8 8 8 8 9 9 9 9 9 9 10 10 10 11 11 11 11 11 11 11 11 12 12 10 9 9 9 9 9 10 10
Wind_Speed
10 11 12 11 10 10 9 9 8 7 7 7 6 5 3 3 2 2 3 7 4 1 4 7 9 10 11 14 16 18 19 20 20 20 19 19 19 19
6 8 10 11 10 10 10 10 9 8 6 6 6 6 3 3 5 4 6 7 8 6 5 6 7 8 8 9 10 13 14 14 14 14 14 14 14 15
7 6 7 8 9 10 10 11 10 9 8 6 6 5 4 4 5 5 5 6 8 10 10 11 12 12 11 11 11 11 12 12 12 12 12 12 12 11
10 8 7 6 8 8 9 12 11 10 10 9 7 6 6 6 7 7 5 7 8 12 14 15 16 16 15 14 14 14 14 13 13 13 14 14 13 12
12 12 10 8 8 6 8 11 10 11 11 9 8 6 6 7 8 8 8 7 8 11 14 16 17 17 17 16 16 17 17 17 18 19 19 20 20 20
14 13 13 12 10 7 5 8 10 11 11 10 8 8 7 9 9 8 6 5 5 6 10 12 16 17 16 16 16 17 19 20 21 23 24 24 24 24
15 15 15 15 15 11 7 4 5 7 9 10 10 9 8 10 9 8 8 7 5 4 6 7 8 9 11 13 14 16 19 21 23 24 25 26 26 25
15 15 14 16 18 17 14 10 6 7 7 9 10 10 10 11 10 10 9 8 4 3 4 5 5 8 8 11 14 16 19 21 23 24 25 25 25 25
15 12 12 14 17 16 15 14 11 11 12 11 11 11 10 11 13 14 13 11 6 8 6 6 6 9 10 14 16 18 20 22 22 23 24 24 25 24
14 13 13 11 15 15 14 14 12 11 11 12 13 12 10 9 14 14 13 9 10 6 4 6 6 9 11 13 16 18 20 21 22 23 24 24 25 24
14 14 13 12 13 13 13 12 12 11 12 15 15 11 7 7 13 12 13 13 8 4 1 6 9 10 10 10 13 16 18 20 22 23 24 26 26 22
12 11 11 10 13 15 12 11 11 10 10 12 13 12 10 11 17 17 16 15 10 5 4 6 11 9 7 7 9 12 14 16 19 21 22 21 16 11
12 12 11 14 12 13 10 9 8 7 9 11 12 13 12 12 15 14 15 16 14 7 10 8 10 7 6 8 8 9 12 13 13 12 11 6 3 2
8 8 8 16 13 12 10 8 5 6 8 10 11 11 12 12 12 11 10 8 6 9 13 9 8 8 10 11 7 8 9 12 12 10 10 7 4 8
5 4 8 11 10 10 11 9 8 9 9 10 11 11 11 11 12 11 12 12 11 13 14 10 10 9 9 8 9 10 9 10 10 10 10 10 9 9
8 6 9 8 8 8 9 10 10 9 9 11 11 10 10 12 13 13 13 13 12 10 9 12 12 12 10 11 11 11 11 11 12 11 11 9 10 9
10 9 9 9 10 11 11 11 10 9 9 10 10 10 11 12 13 14 14 14 12 13 14 13 14 14 12 12 12 12 12 11 12 12 10 10 9 9
6 10 10 11 11 12 12 11 9 9 8 9 9 11 13 14 13 14 14 15 15 15 15 15 14 13 12 11 9 13 12 11 12 12 10 9 10 10
9 11 11 11 11 11 10 9 8 7 7 7 9 12 14 15 16 15 15 14 14 15 16 16 15 14 14 13 8 7 10 11 12 12 11 9 8 9
10 11 11 11 10 10 9 8 6 6 6 7 9 12 15 16 16 16 15 15 16 16 16 16 15 14 12 10 11 11 9 11 11 12 12 10 6 6
10 10 9 10 9 9 8 7 6 6 7 8 10 13 15 16 16 16 14 16 16 16 17 15 13 10 7 7 11 12 11 7 3 7 11 11 9 9
8 9 9 9 8 8 7 7 6 6 7 8 10 12 14 14 15 16 15 15 14 15 15 13 13 11 9 9 10 12 12 12 6 0 4 5 6 8
7 8 8 8 8 7 7 8 8 7 7 9 11 12 13 13 13 13 14 14 14 14 14 14 14 12 11 9 9 10 14 14 12 11 11 12 8 3
Wind_Direction
244 242 244 245 237 231 227 228 236 229 198 179 186 155 165 124 98 94 76 64 46 69 202 201 202 208 213 214 214 213 211 210 210 211 214 216 216 214
242 250 247 251 245 232 225 223 229 244 232 173 179 165 146 153 120 102 92 92 69 70 102 139 152 160 165 174 182 188 189 189 190 196 203 207 211 213
233 238 248 260 260 246 230 223 219 225 227 202 186 169 177 178 141 118 100 88 78 73 86 97 105 111 115 122 131 141 149 157 164 172 180 187 192 189
224 226 233 248 259 263 251 234 222 216 222 217 197 186 184 172 142 119 104 89 85 77 84 88 92 96 100 104 110 116 121 126 131 133 134 132 132 127
219 219 221 216 234 244 260 251 234 218 217 218 204 185 181 156 138 120 107 97 91 89 86 86 88 90 93 96 101 105 107 108 109 108 107 106 103 101
221 217 215 210 213 216 241 261 251 230 213 214 205 192 185 167 158 146 132 116 99 89 85 92 93 89 89 94 98 102 104 104 104 103 101 99 98 96
224 221 217 210 204 203 205 237 273 253 223 211 207 201 192 175 175 164 146 130 98 110 116 120 119 112 106 102 101 103 105 105 105 104 103 101 100 98
226 224 221 208 203 198 198 203 232 270 261 230 215 212 201 188 174 161 153 154 137 140 124 116 119 113 109 102 104 107 109 108 107 106 105 104 102 100
222 220 223 209 196 199 198 200 215 241 262 269 255 236 214 191 175 172 176 172 146 151 133 112 109 102 98 99 107 112 113 112 110 109 107 106 104 102
215 211 216 207 195 194 192 195 204 216 233 249 257 257 249 203 182 178 163 126 115 126 133 120 117 109 105 107 108 112 114 115 114 113 112 111 108 104
212 207 205 201 180 183 197 200 204 212 221 237 249 265 289 203 173 160 149 144 135 138 145 133 131 116 109 114 113 111 115 118 120 121 122 122 120 112
208 206 204 206 169 179 204 206 211 215 216 221 228 231 226 184 167 172 168 163 149 148 183 146 147 135 118 124 135 138 126 121 125 130 135 140 148 129
200 200 195 169 171 188 216 224 222 224 222 220 221 218 209 192 183 181 178 173 164 156 166 157 160 149 131 141 148 155 151 150 145 145 152 151 35 88
206 203 158 153 173 192 213 223 214 225 233 224 218 210 198 187 179 172 159 147 139 148 155 154 154 154 141 141 146 158 161 166 166 166 164 156 108 72
222 76 103 143 174 204 219 212 211 225 229 224 216 206 194 174 156 141 122 106 101 123 138 136 136 141 142 145 150 159 166 174 178 175 170 175 168 162
232 192 170 180 223 243 203 202 218 226 226 224 214 194 170 155 150 146 139 133 128 133 148 151 149 153 153 151 153 161 167 173 179 180 178 179 180 181
217 217 218 212 213 215 217 215 215 217 220 223 207 180 163 155 152 151 149 149 148 154 161 168 166 172 163 159 162 169 174 175 177 173 182 182 184 186
222 224 221 222 221 216 214 211 210 213 216 213 195 176 163 157 154 155 156 156 154 157 161 163 164 165 166 166 171 173 174 174 171 171 191 192 188 188
221 228 224 222 222 218 216 213 211 206 204 199 186 171 160 157 157 158 160 160 159 159 160 161 165 167 169 166 169 201 178 171 172 177 196 204 202 187
222 226 224 221 219 218 214 207 206 201 194 189 180 168 160 157 158 161 163 162 160 161 161 167 173 178 181 170 164 175 193 178 180 184 190 204 185 104
214 223 224 221 216 213 210 202 201 198 192 184 178 167 160 158 160 163 163 161 162 164 167 171 171 174 170 152 158 166 176 174 157 190 191 195 194 193
210 218 222 221 215 209 203 196 193 190 187 185 175 163 158 158 159 161 161 164 168 168 169 163 161 173 174 175 171 164 168 172 171 219 279 246 216 207
213 221 223 218 213 208 202 196 190 187 185 179 166 158 154 155 159 161 164 169 171 172 166 161 168 179 182 185 183 171 169 177 189 197 217 226 234 201
Height
1467 1470 1473 1476 1478 1479 1481 1482 1484 1483 1484 1485 1486 1485 1486 1487 1487 1488 1489 1491 1492 1494 1495 1497 1498 1500 1503 1505 1508 1511 1514 1517 1520 1522 1524 1527 1529 1532
1460 1462 1465 1469 1472 1474 1476 1477 1479 1480 1480 1482 1483 1484 1483 1485 1484 1485 1485 1487 1488 1490 1491 1493 1494 1497 1499 1502 1504 1507 1510 1512 1515 1517 1519 1521 1523 1525
1453 1455 1457 1461 1464 1467 1470 1472 1474 1475 1477 1479 1480 1480 1480 1482 1482 1482 1483 1484 1485 1486 1487 1489 1491 1493 1496 1499 1502 1504 1507 1509 1511 1513 1514 1516 1518 1520
1447 1449 1450 1452 1455 1458 1463 1467 1469 1470 1473 1475 1476 1477 1477 1479 1479 1479 1480 1481 1482 1483 1484 1486 1488 1491 1494 1496 1499 1502 1504 1506 1508 1510 1512 1513 1515 1517
1441 1443 1444 1445 1447 1450 1455 1460 1464 1466 1467 1470 1472 1473 1475 1476 1476 1477 1478 1480 1481 1482 1483 1484 1486 1489 1492 1495 1497 1500 1502 1504 1506 1508 1510 1512 1513 1515
1434 1436 1437 1438 1440 1443 1447 1452 1457 1461 1462 1464 1467 1469 1471 1472 1473 1474 1476 1478 1480 1481 1483 1484 1486 1489 1491 1494 1497 1499 1501 1504 1506 1508 1510 1511 1513 1515
1427 1428 1429 1430 1432 1436 1439 1444 1448 1453 1457 1459 1462 1465 1467 1468 1470 1472 1474 1476 1478 1480 1482 1485 1487 1489 1492 1495 1497 1500 1502 1504 1506 1508 1510 1512 1514 1515
1421 1422 1424 1424 1426 1429 1433 1437 1441 1445 1450 1454 1458 1460 1462 1464 1466 1468 1471 1474 1476 1480 1482 1485 1488 1490 1493 1495 1497 1500 1503 1505 1507 1509 1511 1513 1515 1516
1414 1416 1419 1420 1421 1423 1427 1430 1435 1438 1443 1448 1452 1455 1458 1460 1461 1464 1468 1472 1474 1477 1481 1484 1487 1490 1492 1495 1498 1501 1504 1506 1508 1510 1512 1514 1516 1518
1408 1411 1414 1416 1418 1420 1423 1425 1429 1433 1437 1442 1446 1450 1455 1457 1458 1461 1464 1468 1472 1476 1480 1483 1486 1489 1493 1496 1500 1503 1505 1508 1510 1512 1514 1516 1517 1519
1403 1406 1409 1412 1415 1417 1420 1422 1425 1428 1431 1436 1440 1445 1449 1452 1454 1457 1460 1464 1468 1473 1477 1481 1485 1489 1493 1497 1500 1504 1507 1509 1512 1514 1516 1517 1518 1519
1397 1401 1405 1409 1412 1414 1417 1419 1421 1423 1427 1431 1434 1439 1443 1447 1449 1452 1455 1459 1463 1469 1473 1478 1483 1487 1494 1498 1501 1504 1507 1510 1512 1514 1516 1518 1519 1521
1392 1397 1401 1403 1407 1410 1413 1416 1417 1420 1422 1425 1428 1432 1437 1441 1444 1447 1451 1455 1459 1463 1468 1474 1480 1484 1488 1495 1500 1504 1507 1509 1512 1514 1517 1518 1520 1522
1389 1393 1396 1398 1402 1405 1408 1411 1413 1415 1418 1420 1423 1426 1430 1434 1438 1442 1447 1451 1455 1460 1464 1469 1474 1480 1485 1490 1497 1502 1506 1509 1512 1514 1517 1519 1520 1522
1385 1388 1391 1394 1397 1400 1403 1406 1409 1410 1412 1414 1417 1420 1425 1429 1433 1438 1442 1446 1451 1456 1461 1466 1472 1478 1484 1489 1494 1498 1503 1508 1512 1515 1517 1519 1521 1523
1380 1383 1386 1389 1392 1396 1398 1400 1403 1405 1407 1408 1412 1416 1420 1424 1428 1432 1437 1442 1448 1454 1460 1466 1473 1480 1485 1490 1493 1497 1501 1505 1510 1514 1517 1520 1522 1524
1377 1380 1383 1385 1387 1390 1393 1395 1397 1399 1400 1403 1407 1410 1414 1419 1424 1429 1434 1439 1446 1452 1459 1468 1475 1481 1486 1489 1493 1496 1501 1505 1508 1512 1515 1519 1521 1522
1372 1375 1377 1380 1382 1384 1387 1389 1391 1392 1394 1397 1401 1404 1409 1414 1420 1426 1431 1438 1444 1452 1459 1467 1474 1480 1486 1491 1493 1496 1500 1503 1507 1509 1513 1517 1519 1521
1367 1370 1372 1374 1377 1379 1381 1383 1385 1387 1389 1392 1395 1399 1404 1410 1416 1422 1429 1437 1444 1452 1459 1465 1472 1477 1482 1486 1491 1494 1498 1501 1504 1507 1511 1515 1518 1519
1362 1365 1368 1370 1372 1374 1377 1378 1380 1382 1384 1387 1391 1395 1400 1406 1413 1421 1428 1436 1443 1451 1458 1464 1470 1475 1479 1483 1487 1491 1495 1499 1502 1506 1509 1513 1516 1516
1359 1361 1364 1366 1368 1370 1372 1374 1376 1378 1381 1384 1388 1392 1397 1404 1412 1420 1428 1435 1443 1450 1456 1462 1468 1473 1478 1481 1485 1489 1493 1496 1500 1503 1507 1510 1513 1514
1356 1358 1360 1362 1364 1366 1368 1370 1373 1375 1378 1381 1385 1389 1396 1403 1411 1419 1427 1434 1442 1448 1455 1460 1466 1471 1475 1479 1483 1486 1490 1493 1497 1500 1503 1507 1510 1512
1355 1356 1357 1359 1361 1362 1365 1367 1369 1372 1374 1378 1382 1388 1395 1403 1411 1419 1427 1434 1441 1447 1453 1458 1464 1469 1473 1477 1481 1484 1488 1491 1494 1497 1500 1503 1505 1507